Regional Weather Roundup
Issued by NWS Cleveland, OH

Home | Current Version | Previous Version | Graphics & Text | Print | Product List | Glossary On
Versions: 1 2 3 4 5 6 7 8 9 10 11 12 13 14 15 16 17 18 19 20 21 22 23 24 25 26 27 28 29 30 31 32 33 34 35 36 37 38 39 40 41 42 43 44 45 46 47 48 49 50
735
ASUS41 KCLE 301910
RWRCLE
OHIO REGIONAL WEATHER ROUNDUP
NATIONAL WEATHER SERVICE WILMINGTON, OH
300 PM EDT FRI SEP 30 2016

NOTE: "FAIR" INDICATES FEW OR NO CLOUDS BELOW 12,000 FEET WITH NO
SIGNIFICANT WEATHER AND/OR OBSTRUCTIONS TO VISIBILITY.

OHZ001>008-015>018-024>027-034-035-043-044-302000-
   NORTHWEST OHIO

CITY           SKY/WX    TMP DP  RH WIND       PRES   REMARKS
DEFIANCE       LGT RAIN  63  59  87 E5        30.06F FOG
FINDLAY        CLOUDY    66  57  72 NE10      30.04F
TOLEDO EXPRESS RAIN      62  61  96 NE14      30.04F FOG
TOLEDO EXEC    LGT RAIN  63  60  90 NE8       30.07F FOG
LIMA           LGT RAIN  60  60 100 NE10      30.03F
$$

OHZ009>014-019>023-028>033-038-089-302000-
   NORTHEAST OHIO

CITY           SKY/WX    TMP DP  RH WIND       PRES   REMARKS
CLE-HOPKINS    TSTM      63  57  81 E6        30.12F
CLE-LAKEFRONT  CLOUDY    64  57  78 E7        30.10F
CUY CO. ARPT   CLOUDY    64  59  82 SE12      30.12F
LORAIN-ELYRIA  HVY RAIN  59  57  93 E8        30.09F FOG
ASHTABULA      CLOUDY    62  59  90 E10       30.14F
AKRON-CANTON   RAIN      60  57  89 E12       30.08F FOG
WOOSTER        RAIN      59  57  93 E12       30.07F FOG
MANSFIELD      CLOUDY    60  58  92 E10G21    30.07F
YOUNGSTOWN     CLOUDY    62  55  77 SE12G20   30.13S
$$

OHZ042-051>053-060>062-070>072-077>081-302000-
  SOUTHWEST OHIO

CITY           SKY/WX    TMP DP  RH WIND       PRES   REMARKS
CINC-COVINGTON CLOUDY    65  56  72 CALM      30.00F
CINC-LUNKEN    CLOUDY    64  58  80 S5        30.01F
HAMILTON       CLOUDY    64  57  78 SW5       30.01F
DAYTON         CLOUDY    62  58  86 E12       30.01F
WRIGHT-PAT AFB LGT RAIN  63  63 100 E10       30.00S
DAYTON GENERAL CLOUDY    62  57  83 S5        30.00S
WILMINGTON     CLOUDY    63  58  83 SW5       30.01F
$$

OHZ036-037-039>041-045>050-054>059-063>069-073>076-082>088-302000-
  CENTRAL AND SOUTHEAST OHIO

CITY           SKY/WX    TMP DP  RH WIND       PRES   REMARKS
COLUMBUS       CLOUDY    63  62  97 NE9       30.01R
OSU AIRPORT    LGT RAIN  61  61 100 VRB3      30.02F FOG
BOLTON FIELD   TSTM      61  61 100 NE5       30.02F
RICKENBACK AFB CLOUDY    60  60 100 N8        30.00F THUNDER
NEWARK         CLOUDY    64  58  80 NE7       30.01F
MARION         CLOUDY    63  57  81 NE12      30.06F
LANCASTER      TSTM      63  60  90 W5        30.03R VSB 1
ZANESVILLE     CLOUDY    66  59  78 E9        30.02F
NEW PHILLY     LGT RAIN  61  60  97 VRB6      30.06F
$$




USA.gov is the U.S. government's official web portal to all federal, state and local government web resources and services.